星链-3050 (STARLINK-3050 )

导读

STARLINK-3050是美国太空探索技术公司(SpaceX)星链互联网卫星星座的一员,于2021年9月14日发射入轨,属于Starlink Group 2-14组网批次。星链计划旨在构建全球卫星互联网,该卫星为低轨卫星,承担着向全球偏远地区、海洋等场景提供高速互联网接入服务的组网任务,助力全球网络覆盖。

Basic Information
目录编号:
49180
目录名称:
STARLINK-3050
国际标识:
2021-082BC
轨道中心:
EARTH
卫星名称:
星链-3050
卫星全名:
星链-3050 (STARLINK-3050 )
卫星状态:
已陨落 最后检测时间 2026-03-25
发射日期:
2021-09-14 UTC
国别 :
美国 (US)
星等 :
--
Orbit Information
数据来源 国际轨道数据
星历时间: 2026-03-25T12:48:30+0800
轨道信息已过期87天
半长轴: 6521.214km
偏心率: 0.0009491
轨道倾角: 69.978°
近地点辐角 294.117°
升交点赤经 215.879°
平近点角 65.907°
近地点: 136.887km
远地点: 149.267km
周期: 87.348分钟
每日圈数: 16.485804
Detailed Information
固有亮度:
5
最大亮度:
2.5
卫星平台:
Starlink v1.5
覆盖范围:
全球
运营商:
太空探索技术公司
运营商所在国:
美国
制造商(研发单位):
太空探索技术公司
制造商所在国:
美国
使用方式:
暂无
Satellite Introduction
星链(Starlink)计划是由太空探索技术公司(SpaceX)提出的一个巨型低轨卫星互联网星座项目,计划在2019年至2024年间在太空搭建由约1.2万颗卫星组成的“星链”网络,其中1584颗将部署在地球上空550千米处的近地轨道,并从2020年开始工作。该卫星仍在工作。